Weather History for Windsor Locks, CT

Change the Weather History Date:

Saturday, November 10, 2012

  Actual Average Record
Temperature  
Mean Temperature 49 °F 44 °F  
Max Temperature 59 °F 54 °F 76 °F (1931)
Min Temperature 39 °F 35 °F 18 °F (2004)
Degree Days  
Heating Degree Days 16 21  
Month to date heating degree days 234 193  
Since 1 July heating degree days 613 722  
Cooling Degree Days 0 0  
Month to date cooling degree days 0 0  
Year to date cooling degree days 981 756  
Moisture  
Dew Point 35 °F    
Average Humidity 61    
Maximum Humidity 85    
Minimum Humidity 36    
Precipitation  
Precipitation 0.00 in 0.12 in 2.56 in (1990)
Month to date precipitation 0.17 1.26  
Year to date precipitation 33.66 39.78  
Snow  
Snow 0.00 in 0.10 in 2.10 in (1968)
Month to date snowfall 2.5 0.4  
Since 1 July snowfall 2.5 0.4  
Since 1 September snowfall 2.5 0.4  
Snow Depth -    
Sea Level Pressure  
Sea Level Pressure 30.28 in    
Wind  
Wind Speed 3 mph (WSW)    
Max Wind Speed 10 mph    
Max Gust Speed 15 mph    
Visibility 9 miles    
Events      
T = Trace of Precipitation, MM = Missing Value Source: NWS Daily Summary

Daily Weather History Graph

Daily Weather History Graph

Search for Another Location

Airport:

Trip Planner

Search our weather history database for the weather conditions in past years. The results will help you decide how hot, cold, wet, or windy it might be!

Date:

Astronomy

Nov. 10, 2012 Rise Set
Actual Time 6:34 AM EST 4:34 PM EST
Civil Twilight 6:05 AM EST 5:03 PM EST
Nautical Twilight 5:31 AM EST 5:37 PM EST
Astronomical Twilight 4:58 AM EST 6:09 PM EST
Moon 2:33 AM EST (11/10) 2:21 PM EST (11/10)
Length of Visible Light 10h 58m
Length of Day
9h 59m
Waning Crescent, 14% of the Moon is Illuminated
Nov 10
Waning Crescent
Nov 13
New
Nov 20
First Quarter
Nov 28
Full
Dec 6
Last Quarter

Hourly Weather History & Observations

Time (EST) Temp. Windchill Dew Point Humidity Pressure Visibility Wind Dir Wind Speed Gust Speed Precip Events Conditions
12:51 AM 44.1 °F 41.5 °F 34.0 °F 68% 30.14 in 8.0 mi West 4.6 mph - N/A   Overcast
1:51 AM 42.8 °F 41.1 °F 35.6 °F 76% 30.15 in 8.0 mi WNW 3.5 mph - N/A   Scattered Clouds
2:51 AM 43.0 °F - 34.0 °F 71% 30.17 in 9.0 mi Calm Calm - N/A   Mostly Cloudy
3:51 AM 39.9 °F 37.8 °F 34.0 °F 79% 30.17 in 9.0 mi West 3.5 mph - N/A   Mostly Cloudy
4:51 AM 41.0 °F 38.0 °F 34.0 °F 76% 30.19 in 9.0 mi SW 4.6 mph - N/A   Scattered Clouds
5:51 AM 39.9 °F 36.7 °F 35.1 °F 83% 30.21 in 9.0 mi SSW 4.6 mph - N/A   Mostly Cloudy
6:51 AM 42.1 °F 40.2 °F 35.1 °F 76% 30.24 in 7.0 mi West 3.5 mph - N/A   Mostly Cloudy
7:51 AM 45.0 °F 41.2 °F 35.1 °F 68% 30.26 in 9.0 mi West 6.9 mph - N/A   Mostly Cloudy
8:51 AM 46.9 °F - 35.1 °F 63% 30.28 in 10.0 mi West 8.1 mph - N/A   Mostly Cloudy
9:51 AM 51.1 °F - 34.0 °F 52% 30.28 in 10.0 mi West 3.5 mph - N/A   Scattered Clouds
10:51 AM 53.1 °F - 33.1 °F 47% 30.28 in 10.0 mi WNW 9.2 mph - N/A   Partly Cloudy
11:51 AM 55.9 °F - 33.1 °F 42% 30.27 in 10.0 mi NW 4.6 mph - N/A   Scattered Clouds
12:51 PM 57.0 °F - 33.1 °F 40% 30.27 in 10.0 mi Calm Calm - N/A   Partly Cloudy
1:51 PM 57.0 °F - 33.1 °F 40% 30.27 in 10.0 mi Calm Calm - N/A   Partly Cloudy
2:51 PM 57.0 °F - 30.9 °F 37% 30.28 in 10.0 mi East 3.5 mph - N/A   Partly Cloudy
3:51 PM 55.0 °F - 32.0 °F 42% 30.30 in 10.0 mi East 4.6 mph - N/A   Mostly Cloudy
4:51 PM 52.0 °F - 32.0 °F 47% 30.32 in 10.0 mi SE 3.5 mph - N/A   Mostly Cloudy
5:51 PM 50.0 °F - 35.1 °F 57% 30.35 in 10.0 mi SSE 4.6 mph - N/A   Scattered Clouds
6:51 PM 48.9 °F - 36.0 °F 61% 30.37 in 10.0 mi SSW 5.8 mph - N/A   Partly Cloudy
7:51 PM 48.0 °F - 36.0 °F 63% 30.38 in 10.0 mi Calm Calm - N/A   Scattered Clouds
8:51 PM 42.1 °F - 36.0 °F 79% 30.40 in 10.0 mi Calm Calm - N/A   Mostly Cloudy
9:51 PM 45.0 °F - 37.9 °F 76% 30.41 in 10.0 mi Calm Calm - N/A   Overcast
10:51 PM 46.0 °F - 37.9 °F 73% 30.42 in 10.0 mi Calm Calm - N/A   Overcast
11:51 PM 45.0 °F - 37.9 °F 76% 30.44 in 10.0 mi Calm Calm - N/A   Overcast